Theta_e
332 334 341 341 336 336 337 333 330 324 323 322 321 319 318 317 316 317 319 318 318 318 316 316 316 316 315 316 318 317 316 316 317 315 316 317 319 320 320 321 321 321 323
331 335 337 332 332 332 334 331 330 323 323 325 323 320 319 317 316 317 318 318 317 317 316 316 315 315 315 316 317 315 315 315 316 314 312 310 314 317 320 320 320 319 321
325 334 330 328 330 331 332 330 329 323 322 322 317 317 317 316 315 315 315 317 317 318 317 316 316 316 316 315 317 316 315 313 315 316 315 308 307 312 316 318 318 319 319
323 332 331 327 327 330 333 330 325 323 321 320 320 320 319 315 314 314 315 316 318 317 318 317 316 316 316 316 318 316 316 316 312 315 316 316 316 310 307 315 316 319 318
320 329 331 329 328 330 330 328 324 322 320 321 321 320 316 316 314 315 315 315 316 317 318 318 317 316 316 316 317 317 317 316 315 314 314 313 313 313 311 307 310 315 317
319 328 331 332 330 331 327 323 321 321 320 321 320 319 317 314 314 314 314 314 315 316 318 318 317 316 317 318 317 318 317 315 314 314 314 314 313 312 311 308 309 309 313
311 323 328 329 330 327 323 322 320 320 320 320 319 319 318 317 316 316 315 313 314 316 318 317 316 317 317 317 317 316 316 315 315 315 315 314 314 314 313 311 309 307 312
305 317 326 328 329 328 324 322 320 320 320 320 319 319 319 318 317 317 317 316 316 316 316 315 315 316 317 317 317 316 316 316 316 315 315 314 315 314 313 313 311 306 307
300 307 319 327 329 328 324 323 321 321 320 320 320 318 318 317 316 316 317 316 317 316 315 316 316 316 316 316 316 315 315 315 315 316 315 314 315 314 314 313 313 310 303
301 301 308 321 327 327 325 323 323 321 320 321 321 318 318 317 317 317 316 317 317 317 316 316 316 316 317 317 316 315 315 314 315 315 315 314 314 314 313 312 311 311 309
303 303 302 312 323 325 322 322 322 321 320 320 320 317 318 318 318 318 318 318 318 317 317 316 316 317 317 316 315 314 314 313 313 314 313 314 314 313 313 312 310 309 309
304 305 304 301 314 320 320 320 321 321 320 321 320 319 319 319 318 318 318 318 318 318 318 317 317 317 317 316 314 313 314 313 312 313 312 312 314 313 312 311 310 310 310
305 306 307 308 309 312 316 318 320 320 321 322 321 319 319 319 318 318 319 318 318 318 318 317 317 317 317 315 314 313 313 312 312 312 312 312 311 310 310 310 309 310 310
306 306 307 309 313 315 316 318 318 320 321 322 321 319 319 320 319 320 319 318 318 317 317 317 317 317 316 315 314 313 312 311 311 311 311 310 309 308 308 308 309 309 309
306 306 306 308 312 315 317 319 319 320 321 320 320 320 321 321 320 320 319 318 317 317 317 316 316 316 314 312 312 311 310 309 308 308 308 308 308 310 311 309 309 309 309
308 307 308 308 308 311 316 319 319 320 321 319 319 321 320 320 320 319 317 317 316 316 316 315 315 312 311 306 305 309 308 306 305 305 306 306 308 308 309 309 310 309 307
309 309 309 309 309 307 309 314 317 319 320 320 320 320 320 320 320 317 316 316 315 313 313 311 310 309 308 302 301 303 306 304 304 304 304 304 305 307 306 306 307 307 307
305 308 308 309 308 310 311 312 313 317 319 319 319 319 319 317 316 316 314 311 310 310 308 307 307 306 306 301 299 300 304 303 303 303 303 303 303 304 303 303 303 304 306
306 305 309 309 310 311 312 313 312 312 315 316 317 318 317 315 315 313 309 307 306 305 305 305 304 303 304 299 298 300 302 302 302 302 303 303 302 300 298 301 300 301 302
306 308 308 309 310 312 314 311 309 308 307 310 311 314 316 313 310 307 305 304 305 304 303 303 303 302 303 298 297 299 301 300 300 301 300 299 299 298 297 299 299 298 300
305 307 308 308 309 313 313 310 309 306 307 307 307 306 306 305 305 304 305 304 303 303 302 301 301 301 300 300 296 296 299 298 298 297 298 300 297 296 295 296 298 298 299
302 305 304 306 310 312 312 310 308 308 309 306 305 304 304 305 304 303 302 301 301 300 299 298 297 298 298 297 296 295 295 297 297 297 298 299 296 295 294 295 296 295 296
299 301 303 304 307 310 311 308 309 308 307 307 304 304 303 303 303 302 300 299 298 297 296 295 295 295 296 296 295 295 294 295 296 297 297 296 295 294 295 295 295 295 296
297 299 302 303 305 308 310 309 308 308 305 303 302 302 302 302 301 300 299 297 296 295 295 294 294 294 294 295 296 295 296 295 295 297 297 297 296 295 296 296 297 297 297
299 300 300 302 302 306 305 305 307 306 303 301 300 300 299 299 297 298 296 296 296 296 295 295 293 292 293 295 294 294 295 296 295 295 294 294 295 296 297 298 298 299 298
297 299 301 301 303 303 302 303 303 303 301 298 297 296 296 296 295 295 295 293 293 292 292 291 292 294 292 291 292 292 292 291 291 292 292 294 296 296 297 297 298 298 299
Wind_Speed
15 10 11 12 12 11 14 12 12 10 10 7 7 5 5 3 2 3 6 6 6 6 6 4 4 3 5 4 4 2 5 6 9 3 4 3 3 5 4 5 6 9 10
10 11 14 16 18 17 16 15 15 14 11 9 6 5 5 3 1 3 5 6 6 6 6 5 4 4 4 5 5 5 2 3 7 4 1 5 4 5 4 4 6 10 8
17 15 16 19 17 20 21 19 17 16 12 9 7 5 5 4 2 2 3 4 6 6 6 6 5 5 4 4 4 4 5 3 4 8 3 3 2 6 3 5 6 11 9
18 18 20 18 20 22 18 17 17 17 11 13 11 15 12 8 5 5 4 5 6 6 6 6 5 5 3 5 4 4 3 2 4 2 4 2 0 2 6 3 3 7 8
19 20 21 22 25 19 19 17 15 16 13 15 14 13 8 5 3 4 8 5 5 5 5 5 5 5 3 4 5 4 4 2 3 2 2 2 2 1 3 6 8 7 6
16 19 20 18 18 16 15 15 17 17 15 16 13 16 14 9 8 6 7 5 3 4 5 5 5 5 5 4 4 4 4 3 2 1 1 0 1 2 2 4 10 10 4
14 18 20 18 15 17 19 17 18 18 16 18 15 14 13 14 13 11 8 7 5 3 5 5 5 4 5 5 4 4 2 1 1 1 1 1 2 1 1 3 6 7 6
9 17 22 22 24 23 21 21 21 19 18 18 17 13 11 9 8 10 8 7 6 5 6 6 6 6 6 5 4 2 1 2 1 3 2 2 3 3 3 2 4 8 4
9 11 17 19 20 20 24 25 23 21 18 19 14 11 10 10 10 9 7 7 6 5 7 6 6 5 5 5 4 2 2 2 2 3 3 3 4 4 4 4 2 1 6
7 10 12 18 19 21 20 17 19 24 23 19 15 12 12 11 11 10 9 9 7 7 8 7 6 5 4 4 4 2 2 3 2 3 3 3 4 4 4 5 5 4 5
11 10 11 14 20 19 21 22 19 19 17 16 14 13 13 12 12 10 9 10 7 8 8 7 6 5 5 4 3 4 4 4 4 3 4 6 6 5 5 5 5 6 6
10 9 10 8 13 17 16 19 18 18 17 16 14 14 12 10 12 11 9 10 10 8 8 7 6 5 5 4 5 4 4 5 4 4 4 8 5 6 5 5 8 8 8
15 11 10 8 0 6 8 11 13 14 13 14 15 12 12 11 10 11 11 10 9 9 7 6 6 6 5 4 5 5 5 4 4 5 7 8 7 8 6 7 8 8 8
11 12 9 7 6 6 6 7 7 10 13 15 15 14 14 13 11 11 11 10 9 9 7 6 6 5 5 5 4 5 4 3 4 6 7 9 9 10 9 8 9 9 9
12 11 11 8 6 6 6 6 6 10 13 14 14 14 13 11 11 11 10 8 8 7 7 7 5 5 5 4 5 3 3 3 6 7 9 9 10 16 13 8 9 9 8
10 8 8 11 10 5 3 6 8 9 10 11 14 14 13 12 13 10 9 9 9 8 7 7 7 6 4 5 1 1 3 4 7 8 9 8 13 13 15 16 19 16 11
9 7 7 5 6 7 6 2 6 6 7 10 10 11 12 13 11 10 10 9 9 6 6 5 5 4 2 3 6 5 4 5 7 9 9 9 8 11 12 13 17 17 18
7 5 6 7 7 6 7 5 5 6 9 8 8 9 9 8 9 9 8 7 6 7 6 5 4 2 3 5 8 8 6 6 9 9 10 10 11 12 12 13 13 13 13
2 5 3 4 8 9 8 5 9 6 4 7 9 10 10 9 9 9 9 5 5 4 4 3 4 3 5 6 7 7 7 8 10 9 11 10 12 14 13 12 13 13 13
5 9 4 5 10 11 8 7 12 7 9 7 6 6 7 10 9 8 8 4 5 5 5 4 3 3 5 5 8 9 6 9 8 8 10 14 15 17 15 13 12 14 13
5 3 4 6 8 8 7 7 9 9 7 8 10 11 9 9 10 8 4 5 5 5 3 1 0 3 3 6 10 11 8 9 8 8 9 10 13 15 15 15 12 15 12
6 4 3 5 5 12 4 4 5 4 3 12 11 8 7 5 5 9 5 6 5 4 2 4 4 5 6 8 9 12 12 12 9 10 10 12 16 15 17 15 19 19 16
6 4 4 3 2 4 11 10 3 4 3 7 7 9 9 6 2 6 5 4 5 3 2 0 3 6 7 6 10 13 14 14 10 10 15 22 24 24 20 22 23 22 11
5 3 4 4 4 4 4 10 12 9 4 4 6 4 6 4 4 5 4 4 4 3 2 3 5 6 7 6 4 6 7 10 11 14 12 15 19 23 21 18 14 10 10
2 4 6 6 5 1 1 3 5 7 9 8 7 5 4 5 4 4 2 4 3 3 3 4 4 5 6 7 8 9 10 9 11 13 10 10 9 10 9 9 10 9 9
3 5 7 6 4 2 3 4 6 9 10 8 5 5 5 4 4 3 3 3 1 2 5 10 8 3 11 15 15 16 21 20 20 9 9 10 9 10 10 10 10 10 12
Wind_Direction
205 184 165 166 160 171 175 174 163 160 149 151 148 145 160 151 124 153 144 139 132 126 117 118 114 97 76 74 47 51 39 21 357 1 3 350 4 18 28 25 24 20 9
176 167 166 166 178 170 179 180 178 168 168 163 158 140 142 128 135 160 150 141 135 135 128 125 108 99 93 65 56 48 44 30 18 27 354 8 336 359 6 11 17 14 1
197 175 174 179 180 182 186 181 180 169 166 151 118 93 76 73 120 166 135 162 152 143 130 125 124 107 88 79 66 61 61 35 24 35 59 14 347 323 326 0 10 4 349
204 191 185 180 186 197 183 179 175 169 161 157 162 164 173 168 191 163 148 155 161 144 141 138 133 111 104 89 78 65 70 88 39 23 35 45 239 339 321 324 350 345 339
193 197 197 193 195 179 183 179 173 171 163 173 175 171 177 165 137 133 144 145 151 153 157 154 130 120 113 101 88 76 71 65 77 48 357 18 29 98 319 308 321 330 340
196 200 200 202 193 182 177 172 177 180 171 176 181 183 175 159 154 155 154 150 149 162 162 144 133 128 118 112 109 106 83 80 95 135 142 62 337 336 357 313 324 320 334
201 202 194 193 193 189 179 175 179 183 180 184 182 187 178 173 168 166 160 156 157 171 175 155 149 135 133 121 113 100 94 118 143 197 183 206 230 197 262 294 320 309 317
218 208 204 199 186 191 186 181 183 183 182 186 190 185 182 178 164 162 162 168 166 155 155 147 143 139 127 113 115 107 130 183 221 257 220 256 248 214 211 232 310 326 313
307 234 215 205 202 195 190 186 184 188 186 189 184 184 178 166 157 150 152 158 145 149 153 148 136 138 130 131 145 158 194 189 229 253 250 247 261 237 227 229 223 271 316
318 299 235 209 202 195 194 198 196 189 187 181 183 180 170 156 151 151 156 158 152 150 150 146 147 150 154 150 157 199 214 208 234 243 256 261 266 254 235 228 231 222 241
328 307 282 232 207 198 191 190 188 188 183 183 176 166 164 168 151 155 160 161 147 156 156 155 157 169 178 175 191 222 234 235 245 247 263 271 266 270 254 237 235 238 230
323 320 310 257 206 200 194 194 187 187 184 172 166 167 159 161 151 147 159 157 164 162 162 158 166 175 190 188 212 233 236 235 265 279 276 273 281 264 256 253 253 252 246
352 344 4 3 58 154 171 183 184 182 166 162 161 151 158 156 158 154 161 167 162 168 157 151 170 191 201 197 220 235 252 254 266 269 265 268 269 272 266 258 267 269 271
7 350 3 15 42 58 92 112 130 156 158 159 157 160 166 167 162 160 167 170 173 159 151 170 181 195 199 211 224 238 252 274 263 259 260 268 272 277 273 269 270 272 271
354 7 354 9 35 78 101 114 127 150 155 154 153 166 165 160 152 165 175 163 155 158 165 162 184 195 199 214 212 223 263 261 267 262 265 268 269 272 267 268 266 266 270
344 355 7 18 9 28 109 137 145 150 152 160 166 163 161 157 164 169 167 155 154 163 161 176 184 192 206 192 244 281 289 275 265 272 272 269 275 275 272 266 264 264 265
346 344 338 2 31 357 357 222 171 143 153 161 162 163 163 164 158 145 150 162 156 139 160 163 164 188 238 314 297 287 269 262 266 265 274 282 279 272 269 264 264 264 259
333 5 331 337 7 350 18 337 168 152 145 138 133 137 133 122 122 136 148 136 145 158 148 148 152 189 261 274 275 279 284 269 264 267 268 272 276 267 271 278 280 274 266
135 327 51 345 352 8 3 10 37 84 114 144 135 129 129 130 147 151 151 135 138 123 130 138 164 219 274 263 284 298 284 278 274 268 266 272 277 276 262 271 272 270 263
214 179 217 95 18 12 4 19 51 42 57 42 66 88 126 148 136 132 127 128 120 133 143 160 176 221 279 305 300 289 292 285 283 275 287 277 270 270 261 264 268 269 270
249 295 259 156 115 53 352 29 61 35 77 99 80 78 78 92 111 108 90 107 106 110 114 113 330 341 299 292 287 291 289 280 287 295 290 279 268 258 258 249 261 262 277
283 264 258 216 155 127 117 41 82 119 123 91 86 75 72 97 123 114 121 117 116 112 80 32 346 305 288 274 281 273 269 276 280 284 279 276 273 259 258 261 263 260 260
278 282 243 254 262 188 154 144 263 312 50 111 140 123 118 131 122 125 128 120 97 70 76 222 285 278 273 269 256 267 270 273 277 272 270 274 275 274 273 266 260 258 250
297 271 282 272 252 200 221 177 167 153 140 112 94 87 107 150 150 122 114 94 111 157 235 260 252 263 279 292 296 284 287 281 276 275 276 270 271 270 267 274 266 247 243
256 283 238 232 246 156 151 138 143 146 138 143 113 130 110 137 115 96 84 110 208 164 199 246 259 278 300 288 270 285 295 291 283 288 277 271 269 270 265 259 255 249 242
194 219 262 265 225 140 156 141 138 147 136 122 129 142 131 106 89 125 166 172 201 17 282 247 231 274 246 270 290 297 289 283 275 267 264 268 266 267 272 273 271 258 251